Weather observations for the past three days for
Stillwater, Stillwater Regional Airport
Imperial (Metric)
Date Time (cdt) Wind (mph) Vis. (mi.) Weather Sky Cond. Temperature (ºF) Relative Humidity Wind Chill (°F) Heat Index (°F) Pressure Precipitation (in)
Air Dwpt 6 hour altimeter (in) sea level (mb) 1 hr 3 hr 6 hr
Max. Min.
23 07:53 Calm 10.00 Fair CLR 71.1 66.9 87% 30.06 1016.8
23 06:53 Calm 10.00 Fair CLR 66.9 66 69.1 64 97% 30.06 1016.5
23 05:53 NW 5 10.00 Fair CLR 64.9 64.9 100% 30.05 1016.3
23 04:53 W 3 10.00 Fair CLR 64.9 64 97% 30.04 1015.9
23 03:53 Calm 10.00 Fair CLR 64.9 64 97% 30.03 1015.5
23 02:53 Calm 10.00 Fair CLR 66 64 93% 30.03 1015.6
23 01:53 E 3 10.00 Fair CLR 68 66 93% 30.02 1015.2
23 00:53 Calm 10.00 Fair CLR 69.1 66.9 86 69.1 93% 30.02 1015.2
22 23:53 SW 3 10.00 Fair CLR 69.1 68 96% 30.03 1015.7
22 22:53 N 3 10.00 Fair CLR 72 66.9 84% 30.03 1015.5
22 21:53 Calm 10.00 Fair CLR 73 66 79% 30.02 1015.3
22 20:53 E 3 10.00 Fair CLR 80.1 64 58% 82 30.01 1014.8
22 19:53 E 5 10.00 Fair CLR 84 63 49% 85 29.99 1014.3
22 18:53 E 6 10.00 Fair CLR 86 62.1 89.1 84 45% 87 29.97 1013.6
22 17:53 E 3 10.00 A Few Clouds FEW060 86 62.1 45% 87 29.98 1013.8
22 16:53 NE 8 10.00 Partly Cloudy FEW055 SCT070 88 63 43% 89 29.99 1014.2
22 15:53 E 7 10.00 Fair CLR 88 62.1 42% 88 30.01 1015.0
22 14:53 E 9 10.00 Mostly Cloudy BKN050 BKN060 88 63 43% 89 30.03 1015.8
22 13:53 Calm 10.00 A Few Clouds FEW049 87.1 64 46% 88 30.05 1016.4
22 12:53 N 12 10.00 Mostly Cloudy BKN040 86 64.9 86 66.9 49% 88 30.07 1017.0
22 11:53 NE 12 10.00 Partly Cloudy SCT035 84 64 51% 85 30.08 1017.4
22 10:53 NE 8 10.00 Partly Cloudy SCT060 80.1 64 58% 82 30.09 1017.5
22 09:53 NE 10 10.00 Fair CLR 78.1 64.9 64% 80 30.09 1017.7
22 08:53 NE 8 10.00 Fair CLR 73.9 66.9 79% 30.09 1017.7
22 07:53 NE 5 10.00 Fair CLR 71.1 66 84% 30.08 1017.3
22 06:53 N 7 7.00 Fair CLR 66.9 66 69.1 66 97% 30.06 1016.9
22 05:53 NE 3 9.00 Fair CLR 66 64 93% 30.05 1016.3
22 04:53 NE 5 10.00 Fair CLR 66.9 64.9 93% 30.04 1016.0
22 03:53 Calm 9.00 Fair CLR 66 66 100% 30.04 1016.2
22 02:53 N 6 10.00 Fair CLR 66.9 66.9 100% 30.05 1016.2
22 01:53 N 6 10.00 Fair CLR 66.9 66.9 100% 30.07 1017.0
22 00:53 N 7 10.00 Fair CLR 68 68 82.9 68 100% 30.09 1017.9
21 23:53 N 6 10.00 Fair CLR 70 68 93% 30.09 1017.9
21 22:53 NE 6 10.00 Fair CLR 72 68 87% 30.07 1017.2
21 21:53 E 7 10.00 Fair CLR 73.9 66 76% 30.06 1016.7
21 20:53 E 9 10.00 Fair CLR 75.9 66 72% 77 30.05 1016.3
21 19:53 E 8 10.00 A Few Clouds FEW038 81 66 61% 83 30.04 1016.0
21 18:53 NE 13 10.00 Fair CLR 82.9 66 87.1 79 57% 85 30.03 1015.5
21 17:53 NE 15 10.00 Fair CLR 84.9 66 53% 87 30.01 1015.1
21 16:53 N 13 10.00 A Few Clouds FEW033 84.9 66.9 55% 88 30.02 1015.2
21 15:53 N 13 10.00 Mostly Cloudy BKN028 BKN050 84 66.9 57% 87 30.04 1015.8
21 14:53 NE 10 10.00 Mostly Cloudy BKN024 BKN032 BKN046 84.9 69.1 59% 89 30.05 1016.2
21 13:53 N 8 10.00 Mostly Cloudy FEW021 SCT028 BKN036 82.9 70 65% 87 30.07 1016.9
21 12:53 N 7 10.00 Overcast FEW014 OVC025 78.1 71.1 80.1 69.1 79% 80 30.07 1017.0
21 11:53 NE 8 10.00 Overcast FEW013 OVC029 78.1 70 76% 80 30.08 1017.5
21 10:53 N 8 10.00 Overcast BKN009 OVC022 75.9 71.1 85% 76 30.09 1017.7
21 09:53 NE 5 10.00 Overcast BKN006 OVC012 73.9 71.1 91% 30.08 1017.2
21 08:53 N 6 10.00 Mostly Cloudy BKN007 72 71.1 97% 30.06 1016.7
21 07:53 N 8 10.00 Fair CLR 71.1 69.1 94% 30.05 1016.4
21 06:53 Calm 10.00 Fair CLR 69.1 66.9 73 69.1 93% 30.04 1016.0 0.01 0.57
21 05:53 SE 8 3.00 Thunderstorm Rain Fog/Mist BKN036 BKN047 OVC060 70 69.1 97% 30.03 1015.5 0.37
21 04:53 N 14 G 23 10.00 Thunderstorm in Vicinity SCT005 BKN040 OVC055 72 71.1 97% 30.04 1015.8
21 03:53 SE 8 10.00 Thunderstorm in Vicinity SCT005 BKN050 OVC090 73 72 96% 30.02 1015.3 0.01 0.19
21 02:53 SE 9 8.00 Light Rain BKN022 73 72 96% 30.03 1015.7 0.01
21 01:53 Vrbl 5 10.00 Thunderstorm in Vicinity Light Rain SCT024 BKN042 OVC065 72 70 94% 30.04 1015.9 0.17
21 00:53 NW 13 G 28 9.00 Thunderstorm Light Rain FEW036 SCT046 BKN055 79 70 88 75.9 74% 82 30.03 1015.6 0.01 0.01
20 23:53 SW 3 10.00 Partly Cloudy SCT070 78.1 69.1 74% 80 30.02 1015.4
20 22:53 SE 7 10.00 Partly Cloudy SCT049 79 69.1 72% 82 30.02 1015.4
20 21:53 E 6 10.00 Mostly Cloudy BKN049 80.1 69.1 69% 83 30.02 1015.5
20 20:53 E 8 10.00 Fair CLR 82 68 63% 85 30 1014.5
20 19:53 E 10 10.00 Fair CLR 84.9 69.1 59% 89 29.98 1014.0
20 18:53 SE 8 10.00 Partly Cloudy SCT055 88 70 90 82 55% 93 29.98 1014.0
20 17:53 SE 8 10.00 Mostly Cloudy SCT050 BKN070 88 69.1 54% 92 29.99 1014.1
20 16:53 SE 6 10.00 Fair CLR 88 68 52% 92 30 1014.6
20 15:53 S 6 10.00 Fair CLR 89.1 69.1 52% 94 30.01 1014.8
20 14:53 SE 6 10.00 Fair CLR 88 70 55% 93 30.02 1015.3
20 13:53 S 8 10.00 A Few Clouds FEW034 86 69.1 57% 90 30.04 1016.0
20 12:53 SE 3 10.00 Fair CLR 82 70 82 69.1 67% 86 30.05 1016.5 0.11
20 11:53 S 8 10.00 A Few Clouds FEW120 77 71.1 82% 79 30.05 1016.3
20 10:53 S 9 10.00 Mostly Cloudy FEW042 FEW070 BKN110 72 70 94% 30.06 1016.7 0.02
20 09:53 S 5 4.00 Light Rain Fog/Mist BKN090 OVC110 70 70 100% 30.08 1017.4 0.07 0.09
20 08:53 Calm 10.00 Light Rain FEW065 BKN090 OVC110 71.1 66.9 87% 30.08 1017.5 0.02
Date Time (cdt) Wind (mph) Vis. (mi.) Weather Sky Cond. Air Dwpt Max. Min. Relative Humidity Wind Chill (°F) Heat Index (°F) altimeter (in) sea level (mb) 1 hr 3 hr 6 hr
6 hour
Temperature (ºF) Pressure Precipitation (in)